SCP
0 0 0 -0 0 0 0 -0 -0 0 0 0 0 0 0 0 0 0 0 0 0 0 0 0 0 0 -0 0 -0 0 -0 0 0 0 0 0 0 0 0 0 0 0 0 0 0 0 0 0 0 0 0 -0 0 0
0 0 0 -0 -0 0 0 -0 -0 0 0 0 0 0 0 0 0 0 0 0 0 0 0 0 0 0 0 0 0 0 -0 -0 0 0 0 0 0 0 0 0 0 0 0 0 0 0 0 0 0 0 0 0 0 0
0 0 -0 -0 -0 0 0 0 0 0 0 0 0 0 0 0 0 0 0 0 0 0 0 0 0 0 0 0 0 0 0 0 -0 0 0 0 0 0 0 0 0 0 0 0 0 0 0 0 0 0 0 0 0 0
0 0 -0 -0 -0 0 0 0 0 0 0 0 0 0 0 0 0 0 0 0 0 0 0 0 0 0 0 0 0 0 0 0 0 0 0 0 0 0 0 0 0 0 0 0 0 0 0 0 0 0 0 0 0 0
0 -0 -0 -0 -0 0 0 0 0 0 0 0 0 0 0 0 0 0 0 0 0 0 0 0 0 -0 0 0 0 0 0 0 0 0 0 0 0 0 0 0 0 0 0 0 0 0 0 0 0 0 0 0 0 0
0 0 -0 0 -0 0 0 0 0 0 0 0 0 0 0 0 0 0 0 0 0 0 0 0 0 0 0 0 0 0 0 0 0 0 0 0 0 0 0 0 0 0 0 0 0 0 0 0 0 0 0 0 0 0
0 0 -0 0 -0 0 0 0 0 0 0 0 -0 -0 0 0 0 0 0 0 0 0 0 0 0 0 0 0 0 0 0 0 0 0 0 0 0 0 0 0 0 0 0 0 0 0 0 0 0 0 0 0 0 0
0 0 0 -0 -0 0 0 0 0 0 0 0 -0 -0 -0 -0 0 0 0 0 0 0 0 0 0 0 0 0 -0 0 -0 -0 0 0 0 0 0 0 0 0 0 0 0 0 0 0 0 0 0 0 0 0 0 0
0 0 0 0 -0 -0 0 0 0 0 0 0 -0 -0 0 0 0 0 0 0 0 0 0 0 0 -0 0 -0 0 -0 -0 -0 0 0 0 0 0 0 0 0 0 0 0 0 0 0 0 0 0 0 0 0 0 0
0 0 -0 -0 -0 -0 0 0 0 0 0 0 0 0 0 0 0 0 0 0 0 0 0 0 0 -0 -0 -0 -0 -0 -0 -0 -0 -0 -0 -0 -0 -0 -0 -0 -0 0 0 0 0 0 0 0 0 0 0 0 0 0
0 0 -0 -0 -0 -0 0 0 0 0 0 0 0 0 0 0 0 0 0 0 0 0 0 -0 0 0 -0 -0 -0 -0 -0 -0 -0 -0 -0 -0 -0 -0 0 0 0 0 -0 -0 0 0 0 0 0 0 0 0 0 0
0 0 0 -0 -0 -0 0 0 0 0 0 0 0 0 0 0 0 0 0 -0 -0 0 -0 0 -0 -0 -0 0 -0 -0 -0 -0 -0 -0 -0 -0 -0 -0 0 0 0 0 -0 -0 -0 0 0 0 0 0 0 0 0 0
0 0 -0 -0 -0 -0 -0 0 0 0 0 0 0 0 0 0 0 0 0 0 -0 -0 -0 -0 -0 -0 0 -0 -0 -0 0 -0 0 -0 0 0 0 0 0 0 0 0 -0 0 0 0 0 0 0 0 0 0 0 0
0 0 -0 -0 -0 -0 0 0 0 0 0 0 0 0 0 0 0 0 0 0 0 0 -0 0 0 -0 -0 -0 0 -0 -0 -0 -0 -0 -0 0 0 0 0 0 0 0 0 0 0 0 0 0 0 0 0 0 0 0
0 0 0 0 -0 -0 -0 0 0 0 0 0 0 0 0 0 0 0 0 0 0 0 0 0 0 0 0 0 0 -0 -0 -0 -0 -0 -0 0 0 0 0 0 0 0 0 0 0 0 0 0 0 0 0 0 0 0
0 0 0 0 0 0 -0 0 0 0 0 0 0 0 0 0 0 0 0 0 0 0 0 0 0 0 0 0 0 0 0 0 0 0 0 0 0 0 0 0 0 0 0 0 0 0 0 0 0 0 0 0 0 0
0 0 -0 -0 -0 -0 0 0 0 0 0 0 0 0 0 0 0 0 0 0 0 0 0 0 0 0 0 0 0 0 0 0 0 0 0 0 0 0 0 0 0 0 0 0 0 0 0 0 0 0 0 0 0 0
0 0 -0 -0 0 0 0 0 0 0 0 0 0 0 0 0 0 0 0 0 0 0 0 0 0 0 0 0 0 0 0 0 0 0 0 0 0 0 0 0 0 0 0 0 0 0 0 0 0 0 0 0 0 0
0 0 -0 -0 0 0 0 0 0 0 0 0 0 0 0 0 0 0 0 0 0 0 0 0 0 0 0 0 0 0 0 0 0 0 0 0 0 0 0 0 0 0 0 0 0 0 0 0 0 0 0 0 0 0
0 -0 -0 0 0 0 0 0 0 0 0 0 0 0 0 0 0 0 0 0 0 0 0 0 0 0 0 0 0 0 0 0 0 0 0 0 0 0 0 0 0 0 0 0 0 0 0 0 0 0 0 0 0 0
0 0 0 0 0 0 0 0 0 0 0 0 0 0 0 0 0 0 0 0 0 0 0 0 0 0 0 0 0 0 0 0 0 0 0 0 0 0 0 0 0 0 0 0 0 0 0 0 0 0 0 0 0 0
0 0 0 0 0 0 0 0 0 0 0 0 0 0 0 0 0 0 0 0 0 0 0 0 0 0 0 0 0 0 0 0 0 0 0 0 0 0 0 0 0 0 0 0 0 0 0 0 0 0 0 0 0 0
0 0 0 0 0 0 0 0 0 0 0 0 0 0 0 0 0 0 0 0 0 0 0 0 0 0 0 0 0 0 0 0 0 0 0 0 0 0 0 0 0 0 0 0 0 0 0 0 0 0 0 0 0 0
0 0 0 0 0 0 0 0 0 0 0 0 0 0 0 0 0 0 0 0 0 0 0 0 0 0 0 0 0 0 0 0 0 0 0 0 0 0 0 0 0 0 0 0 0 0 0 0 0 0 0 0 0 0
0 0 0 0 0 0 0 0 0 0 0 0 0 0 0 0 0 0 0 0 0 0 0 0 0 0 0 0 0 0 0 0 0 0 0 0 0 0 0 0 0 0 0 0 0 0 0 0 0 0 0 0 0 0
0 0 0 0 0 0 0 0 0 0 0 0 0 0 0 0 0 0 0 0 0 0 0 0 0 0 0 0 0 0 0 0 0 0 0 0 0 0 0 0 0 0 0 0 0 0 0 0 0 0 0 0 0 0
0 0 0 0 0 0 0 0 0 0 0 0 0 0 0 0 0 0 0 0 0 0 0 0 0 0 0 0 0 0 0 0 0 0 0 0 0 0 0 0 0 0 0 0 0 0 0 0 0 0 0 0 0 0
0 0 0 0 0 0 0 0 0 0 0 0 0 0 0 0 0 0 0 0 0 0 0 0 0 0 0 0 0 0 0 0 0 0 0 0 0 0 0 0 0 0 0 0 0 0 0 0 0 0 0 0 0 0
0 0 0 0 0 0 0 0 0 0 0 0 0 0 0 0 0 0 0 0 0 0 0 0 0 0 0 0 0 0 0 0 0 0 0 0 0 0 0 0 0 0 0 0 0 0 0 0 0 0 0 0 0 0
0 0 0 0 0 0 0 0 0 0 0 0 0 0 0 0 0 0 0 0 0 0 0 0 0 0 0 0 0 0 0 0 0 0 0 0 0 0 0 0 0 0 0 0 0 0 0 0 0 0 0 0 0 0
0 0 0 0 0 0 0 0 0 0 0 0 0 0 0 0 0 0 0 0 0 0 0 0 0 0 0 0 0 0 0 0 0 0 0 0 0 0 0 0 0 0 0 0 0 0 0 0 0 0 0 0 0 0
0 0 0 0 0 0 0 0 0 0 0 0 0 0 0 0 0 0 0 0 0 0 0 0 0 0 0 0 0 0 0 0 0 0 0 0 0 0 0 0 0 0 0 0 0 0 0 0 0 0 0 0 0 0
0 0 0 0 0 0 0 0 0 0 0 0 0 0 0 0 0 0 0 0 0 0 0 0 0 0 0 0 0 0 0 0 0 0 0 0 0 0 0 0 0 0 0 0 0 0 0 0 0 0 0 0 0 0
Wind_Speed_500mb
86 79 69 59 55 54 48 42 40 35 32 26 18 22 20 18 16 15 14 10 7 7 8 4 2 4 7 3 6 14 10 3 4 4 5 4 4 3 2 3 7 7 11 7 4 5 7 3 2 10 5 4 4 3
85 79 71 57 56 51 48 43 41 33 26 18 16 18 17 16 16 17 16 9 7 6 6 6 4 4 3 4 10 11 9 5 6 6 1 4 1 3 4 6 3 6 4 4 3 4 3 3 5 5 5 4 2 9
87 80 73 65 60 54 51 50 37 25 21 18 16 15 15 15 16 18 16 7 5 6 8 6 5 6 4 7 8 7 6 9 3 8 6 3 2 4 0 5 2 2 4 4 2 6 4 3 4 6 10 11 16 22
85 86 75 70 68 59 55 48 36 27 21 19 18 16 17 18 16 14 10 9 7 3 3 4 5 6 7 4 5 9 23 20 20 9 7 2 2 5 3 1 2 3 3 5 5 4 4 1 6 10 22 30 30 27
81 86 83 77 73 67 58 50 43 29 23 22 21 19 19 16 11 11 9 10 8 2 4 5 7 5 1 2 5 15 18 13 6 4 2 3 4 7 2 3 5 3 5 4 5 11 5 9 15 17 23 25 26 23
81 86 87 83 75 66 60 53 48 33 24 22 21 20 14 12 14 10 6 11 10 7 5 5 5 5 4 2 13 13 9 7 5 5 4 4 4 8 4 3 2 2 7 6 5 7 8 18 21 20 18 15 12 9
82 82 86 83 76 68 63 57 52 36 26 23 20 15 15 18 18 6 5 2 9 10 5 6 4 5 8 6 7 6 10 7 6 5 10 8 6 13 3 2 2 2 5 11 13 14 12 18 11 16 14 11 6 6
79 82 85 78 73 67 63 59 50 36 28 24 19 16 19 21 14 11 11 7 12 5 3 3 2 0 2 1 1 9 5 7 14 5 6 10 12 6 3 2 3 4 5 2 2 6 8 10 16 17 15 10 5 7
90 85 80 76 69 65 59 51 42 34 27 28 25 13 7 9 9 5 11 12 11 3 3 1 2 2 2 4 6 6 6 1 6 6 7 9 1 4 3 2 6 1 1 2 8 15 7 15 17 14 9 7 11 18
90 85 77 73 65 60 57 49 45 36 35 36 26 10 6 7 10 19 8 6 5 3 2 4 4 2 6 4 5 5 6 3 1 4 12 3 5 13 13 10 6 6 4 5 2 11 20 20 16 14 17 18 14 9
89 84 76 69 65 61 56 55 50 47 43 35 15 9 9 20 9 4 3 2 2 2 2 5 4 4 3 2 4 6 2 2 2 4 6 2 4 3 3 6 12 14 20 10 5 7 10 7 5 5 4 5 7 7
87 81 77 72 65 60 61 55 56 61 33 18 12 17 17 5 2 2 1 1 5 2 7 6 7 6 4 4 0 7 3 1 2 12 4 2 2 5 16 11 9 10 16 18 13 19 15 9 5 2 1 3 7 12
86 83 79 71 64 60 62 57 60 45 28 25 8 9 7 4 3 9 9 5 4 15 16 12 8 6 5 5 9 2 3 1 7 3 4 5 13 14 13 1 15 23 29 24 16 12 15 16 11 5 8 15 22 28
86 83 79 70 62 63 60 59 63 40 20 8 11 6 7 6 9 5 2 4 8 11 32 20 11 3 5 6 4 1 3 4 1 2 2 3 14 13 20 33 39 37 34 33 27 17 11 9 12 17 22 28 34 38
85 81 73 67 65 64 58 59 57 41 8 6 6 7 9 4 3 7 8 9 10 34 37 18 12 4 4 6 4 5 2 4 5 3 2 6 6 24 41 47 44 36 26 18 12 14 17 20 23 27 34 39 43 47
84 72 72 72 70 63 59 61 51 28 5 5 6 3 1 4 4 8 14 10 29 41 17 8 8 5 3 4 7 9 4 6 3 5 3 7 25 35 33 27 20 13 8 12 19 26 30 34 37 39 43 47 48 49
94 70 85 78 77 63 64 59 29 14 8 5 3 8 7 0 3 9 16 20 43 25 2 4 6 4 8 3 5 5 5 3 13 16 21 25 29 25 17 8 6 14 21 26 31 35 38 42 46 50 49 43 39 38
84 86 90 89 84 74 67 24 15 10 7 9 4 6 13 3 7 14 13 33 29 11 8 2 11 6 7 7 4 6 10 20 20 15 13 14 13 10 8 10 16 22 27 33 38 42 45 47 45 42 41 39 32 29
91 99 99 97 84 57 14 23 8 8 6 6 9 10 8 6 7 15 18 47 15 10 6 5 2 4 4 4 5 19 27 18 15 11 11 11 8 8 11 17 23 28 32 35 38 38 38 39 39 38 38 37 32 29
94 104 96 87 65 17 11 9 16 7 9 12 11 14 9 7 12 16 42 28 18 7 3 4 4 2 4 16 21 22 18 14 8 7 6 6 9 17 21 25 29 32 34 34 34 33 30 29 31 30 30 31 33 32
99 93 93 77 36 11 9 12 10 9 15 9 18 14 8 15 14 18 26 21 9 7 5 4 8 18 23 22 18 13 7 1 2 4 7 12 18 23 25 28 30 31 30 29 27 27 27 27 27 27 28 31 35 39
88 111 90 56 17 7 9 11 13 19 10 16 18 10 10 8 11 17 24 13 8 8 9 14 18 19 16 13 9 3 3 3 4 8 12 16 19 23 25 25 25 25 26 26 25 24 25 28 31 34 38 39 42 44
105 80 54 12 9 7 10 26 6 8 6 15 13 7 4 6 13 24 13 8 9 13 16 23 23 18 15 12 8 4 1 6 11 16 20 23 24 25 24 23 22 20 21 22 25 28 31 34 38 42 46 51 56 60
80 25 12 11 8 9 20 6 8 11 11 7 6 7 5 7 20 7 4 8 11 19 23 21 23 21 17 15 12 7 7 11 13 14 14 16 19 19 18 17 17 18 20 25 30 34 39 43 46 49 52 57 61 65
20 17 15 8 10 14 7 7 5 4 5 5 6 3 7 11 6 6 5 9 20 22 22 20 20 23 19 15 9 8 9 11 13 14 14 13 13 11 10 12 19 24 29 35 38 42 46 51 54 58 59 61 64 66
8 9 11 14 15 12 14 11 13 10 8 7 4 10 10 7 7 8 5 12 20 26 21 19 18 15 12 10 7 8 12 12 12 9 9 8 10 13 17 22 26 31 38 45 50 53 54 55 57 58 59 59 60 65
9 7 9 14 20 24 11 9 13 8 9 11 9 11 8 8 11 5 6 8 16 17 18 16 14 13 10 8 8 8 8 8 7 6 5 8 12 17 22 29 37 41 45 46 49 52 55 56 57 58 60 60 60 61
9 19 16 30 15 9 9 6 10 13 9 18 30 11 14 5 4 6 9 8 11 13 15 13 12 10 8 6 2 1 4 5 6 8 12 17 22 24 27 33 37 39 40 41 43 45 49 52 54 56 57 59 60 56
10 25 39 12 12 9 5 3 5 6 12 23 7 6 8 8 10 12 13 14 14 14 13 11 9 8 7 5 3 0 2 4 7 10 13 15 18 24 29 32 34 36 37 37 37 38 40 43 46 49 50 52 52 52
12 25 15 10 7 5 3 7 11 18 17 22 21 20 17 18 17 18 16 15 14 13 11 9 7 6 3 1 1 1 4 10 13 14 15 17 20 22 24 25 27 29 32 34 34 33 32 34 36 38 42 45 48 50
22 11 15 14 10 6 19 34 35 30 19 17 18 18 22 18 19 17 15 15 14 12 9 7 7 7 5 4 2 1 2 6 9 13 15 17 19 22 25 27 29 31 33 35 38 40 41 42 43 43 43 43 44 45
10 9 14 9 10 23 19 9 9 9 9 8 10 12 14 11 9 15 18 16 13 10 9 8 9 8 8 6 6 7 8 11 13 15 16 18 20 23 25 26 29 31 32 34 35 36 38 40 42 43 45 45 44 44
14 22 19 18 12 11 13 11 8 10 12 8 7 8 7 9 9 12 19 18 13 11 10 12 12 13 11 10 11 12 13 14 15 16 17 18 20 22 24 27 29 32 34 36 37 39 40 41 42 43 44 45 46 47
Wind_Direction_500mb
198 200 204 208 209 213 210 210 215 220 232 232 220 219 229 241 256 274 287 283 224 202 207 208 209 256 309 6 306 327 301 178 311 298 327 1 355 69 132 6 106 152 168 170 123 111 217 152 245 189 34 346 347 111
196 199 200 197 198 203 205 202 205 215 219 223 221 222 236 238 261 274 278 286 211 190 159 145 151 110 66 326 306 306 315 307 358 295 287 280 238 272 342 117 272 138 349 105 353 79 34 139 10 341 360 34 103 148
196 197 198 194 197 200 200 206 210 207 213 214 218 224 240 253 266 268 269 232 184 170 121 151 235 240 307 313 302 298 315 338 304 291 309 314 4 262 10 76 139 49 337 80 161 20 92 54 43 60 46 84 126 134
196 196 196 195 198 202 207 215 216 209 219 221 223 237 252 263 272 252 233 214 200 137 159 182 181 255 293 285 293 304 299 300 294 275 255 290 318 7 355 11 351 14 282 129 98 67 132 351 106 101 99 106 112 112
194 195 196 198 201 202 209 218 226 220 224 224 233 249 264 269 228 211 223 206 209 222 102 147 177 271 258 152 313 304 306 313 289 268 300 53 314 317 286 262 56 6 32 345 94 104 47 90 148 135 126 109 101 99
195 195 198 201 202 204 210 217 227 226 225 221 236 257 252 205 185 178 239 239 226 201 148 159 173 193 196 321 311 324 307 333 330 346 19 55 50 340 337 53 39 97 70 45 85 60 109 136 149 144 140 136 121 107
195 195 199 202 203 205 206 211 225 228 221 215 232 234 205 185 186 209 222 186 184 175 158 130 185 226 243 288 298 347 33 18 45 12 9 349 6 2 324 60 24 196 139 66 86 90 83 138 151 161 157 158 185 273
193 197 198 197 199 199 202 210 218 214 210 206 210 202 209 199 202 225 232 213 175 184 183 127 115 132 333 19 188 8 353 11 23 32 9 14 319 0 308 296 246 83 126 141 161 57 114 153 164 179 188 190 212 282
193 195 195 195 198 198 200 201 198 196 197 179 185 194 147 183 212 221 172 177 188 230 164 161 229 120 358 24 5 360 7 60 5 21 31 338 302 242 1 68 49 109 156 306 216 213 179 160 154 159 182 229 268 289
191 191 192 193 194 194 196 187 176 183 165 169 174 179 228 212 160 133 126 159 196 218 154 96 119 103 16 0 64 323 24 43 187 38 320 269 288 280 282 234 184 105 146 108 125 203 209 209 217 231 262 282 289 298
187 189 190 189 191 192 186 177 174 159 167 167 190 187 172 149 148 160 125 126 321 182 116 128 138 119 44 335 41 32 43 358 332 41 341 314 267 260 306 294 248 240 211 183 98 129 128 141 170 193 223 267 274 281
184 185 186 186 188 188 182 176 169 176 172 162 157 130 145 182 169 167 63 281 231 202 150 153 142 119 118 96 2 11 39 296 315 333 271 267 240 310 316 296 254 204 189 180 137 120 118 124 127 143 252 306 321 310
180 184 185 183 183 181 175 172 176 173 156 143 168 154 155 186 181 198 194 208 236 172 175 159 133 130 103 92 79 237 242 49 303 278 304 271 311 354 349 108 138 127 123 134 133 109 99 96 87 40 324 310 306 306
177 183 184 181 179 172 171 174 173 167 169 182 176 182 197 183 242 193 308 58 147 150 149 135 108 88 92 73 1 175 36 304 276 294 258 352 345 42 88 110 112 111 114 113 107 94 66 18 340 321 313 311 310 309
175 179 177 177 173 171 175 175 170 174 192 212 188 219 205 248 233 183 133 122 139 150 142 119 96 120 82 101 34 124 121 258 246 293 318 310 89 110 109 109 112 112 107 94 61 14 346 329 321 318 314 312 311 310
169 168 176 170 170 170 173 167 174 183 268 233 227 158 210 141 206 196 166 148 154 155 145 128 125 139 115 117 169 213 194 216 167 220 238 143 135 132 123 118 111 95 44 359 340 330 322 318 317 317 316 313 311 310
164 169 172 168 167 166 162 165 158 193 219 226 237 211 198 94 136 172 159 159 162 154 209 158 151 144 110 163 233 205 212 139 142 115 97 110 134 143 146 161 251 296 305 308 311 315 315 313 313 312 310 310 311 308
166 168 164 167 163 160 164 162 174 184 202 220 193 200 193 159 145 153 164 163 160 191 170 239 133 168 200 180 220 193 185 150 137 113 109 127 149 178 219 270 290 297 302 306 307 308 308 309 310 311 312 312 313 304
168 163 168 171 160 144 135 177 175 163 183 193 191 169 164 169 161 159 160 163 165 164 151 163 208 222 240 223 79 121 136 133 135 140 149 163 194 237 269 290 299 303 305 306 308 311 312 312 313 313 311 310 312 312
163 167 168 166 155 137 119 123 169 160 170 184 167 162 143 145 149 158 161 164 161 172 238 211 242 309 117 124 119 120 130 137 137 159 174 205 287 306 309 311 312 313 312 311 309 308 307 305 305 307 309 310 312 312
160 163 167 160 157 110 110 145 128 141 143 159 156 142 116 124 119 147 171 171 191 225 211 188 143 132 135 138 136 128 129 183 277 267 268 289 304 309 315 317 317 317 316 318 319 321 324 326 325 322 320 319 319 320
153 167 156 154 157 105 98 124 139 134 136 143 147 143 137 135 139 158 167 192 223 196 179 159 154 158 150 147 148 209 262 293 324 317 308 304 305 310 314 319 323 327 330 332 335 335 332 330 329 328 325 322 320 320
154 152 153 118 128 123 126 140 115 124 129 170 148 134 128 135 166 154 193 222 198 196 179 172 175 180 186 200 225 236 274 323 316 316 318 319 321 324 326 327 328 328 329 329 331 332 331 328 326 325 325 325 325 324
149 133 128 139 123 108 140 155 142 119 119 172 181 143 162 150 160 204 235 186 192 177 177 180 188 195 203 213 217 233 290 310 319 313 310 314 322 321 318 318 320 323 327 328 326 326 324 324 324 323 323 323 323 323
126 167 168 114 133 119 121 144 155 149 118 158 127 148 175 162 192 207 208 172 183 177 178 182 188 201 205 209 227 273 302 317 319 316 311 308 304 302 311 321 323 323 319 319 319 322 324 326 328 330 331 330 329 328
139 142 154 150 145 144 170 150 179 154 131 145 143 141 156 175 193 233 123 177 184 189 188 192 193 188 193 209 246 277 293 300 304 299 311 327 333 331 325 322 321 324 325 326 327 327 328 329 329 330 330 330 331 330
132 139 128 129 134 138 125 101 133 137 148 165 168 170 173 190 229 107 179 183 186 181 188 190 194 201 212 231 252 273 292 312 320 312 314 312 310 312 314 322 327 327 328 329 329 329 329 329 330 331 332 333 336 334
124 149 141 146 133 158 131 130 149 183 168 160 143 176 186 205 127 161 171 155 159 172 180 183 186 186 180 181 189 325 325 326 314 310 313 316 323 327 327 326 322 319 322 325 327 329 330 330 332 333 332 331 331 332
114 142 136 97 109 93 81 104 121 122 135 167 120 113 116 101 124 132 138 148 144 142 145 145 142 152 148 138 118 141 292 321 331 327 321 323 325 322 325 327 331 335 336 335 335 334 332 332 331 329 329 329 329 329
129 148 111 76 73 88 38 105 126 137 135 137 120 114 105 113 123 129 130 135 136 136 137 137 130 129 121 111 63 342 339 342 339 335 339 341 343 339 340 342 344 343 342 342 342 340 338 337 339 341 342 343 344 346
128 109 82 68 77 57 123 118 115 113 108 90 98 114 118 125 136 136 137 136 134 137 136 135 143 145 137 137 152 172 339 356 0 8 11 5 2 0 358 357 357 356 356 356 356 355 355 356 355 356 356 357 357 356
85 77 122 111 119 141 120 106 96 81 84 82 78 95 118 118 127 157 164 157 151 149 155 160 160 155 147 123 93 73 56 42 38 36 29 22 16 13 9 6 5 4 2 2 0 358 357 357 357 356 356 357 356 356
93 91 96 104 121 165 155 125 89 90 70 78 82 118 116 130 143 154 157 160 156 153 153 154 151 144 125 98 79 66 56 50 46 42 35 27 18 15 14 12 10 7 4 1 359 358 357 355 353 352 350 349 348 347
Wind_Speed_850mb
86 79 69 59 55 54 48 42 40 35 32 26 18 22 20 18 16 15 14 10 7 7 8 4 2 4 7 3 6 14 10 3 4 4 5 4 4 3 2 3 7 7 11 7 4 5 7 3 2 10 5 4 4 3
85 79 71 57 56 51 48 43 41 33 26 18 16 18 17 16 16 17 16 9 7 6 6 6 4 4 3 4 10 11 9 5 6 6 1 4 1 3 4 6 3 6 4 4 3 4 3 3 5 5 5 4 2 9
87 80 73 65 60 54 51 50 37 25 21 18 16 15 15 15 16 18 16 7 5 6 8 6 5 6 4 7 8 7 6 9 3 8 6 3 2 4 0 5 2 2 4 4 2 6 4 3 4 6 10 11 16 22
85 86 75 70 68 59 55 48 36 27 21 19 18 16 17 18 16 14 10 9 7 3 3 4 5 6 7 4 5 9 23 20 20 9 7 2 2 5 3 1 2 3 3 5 5 4 4 1 6 10 22 30 30 27
81 86 83 77 73 67 58 50 43 29 23 22 21 19 19 16 11 11 9 10 8 2 4 5 7 5 1 2 5 15 18 13 6 4 2 3 4 7 2 3 5 3 5 4 5 11 5 9 15 17 23 25 26 23
81 86 87 83 75 66 60 53 48 33 24 22 21 20 14 12 14 10 6 11 10 7 5 5 5 5 4 2 13 13 9 7 5 5 4 4 4 8 4 3 2 2 7 6 5 7 8 18 21 20 18 15 12 9
82 82 86 83 76 68 63 57 52 36 26 23 20 15 15 18 18 6 5 2 9 10 5 6 4 5 8 6 7 6 10 7 6 5 10 8 6 13 3 2 2 2 5 11 13 14 12 18 11 16 14 11 6 6
79 82 85 78 73 67 63 59 50 36 28 24 19 16 19 21 14 11 11 7 12 5 3 3 2 0 2 1 1 9 5 7 14 5 6 10 12 6 3 2 3 4 5 2 2 6 8 10 16 17 15 10 5 7
90 85 80 76 69 65 59 51 42 34 27 28 25 13 7 9 9 5 11 12 11 3 3 1 2 2 2 4 6 6 6 1 6 6 7 9 1 4 3 2 6 1 1 2 8 15 7 15 17 14 9 7 11 18
90 85 77 73 65 60 57 49 45 36 35 36 26 10 6 7 10 19 8 6 5 3 2 4 4 2 6 4 5 5 6 3 1 4 12 3 5 13 13 10 6 6 4 5 2 11 20 20 16 14 17 18 14 9
89 84 76 69 65 61 56 55 50 47 43 35 15 9 9 20 9 4 3 2 2 2 2 5 4 4 3 2 4 6 2 2 2 4 6 2 4 3 3 6 12 14 20 10 5 7 10 7 5 5 4 5 7 7
87 81 77 72 65 60 61 55 56 61 33 18 12 17 17 5 2 2 1 1 5 2 7 6 7 6 4 4 0 7 3 1 2 12 4 2 2 5 16 11 9 10 16 18 13 19 15 9 5 2 1 3 7 12
86 83 79 71 64 60 62 57 60 45 28 25 8 9 7 4 3 9 9 5 4 15 16 12 8 6 5 5 9 2 3 1 7 3 4 5 13 14 13 1 15 23 29 24 16 12 15 16 11 5 8 15 22 28
86 83 79 70 62 63 60 59 63 40 20 8 11 6 7 6 9 5 2 4 8 11 32 20 11 3 5 6 4 1 3 4 1 2 2 3 14 13 20 33 39 37 34 33 27 17 11 9 12 17 22 28 34 38
85 81 73 67 65 64 58 59 57 41 8 6 6 7 9 4 3 7 8 9 10 34 37 18 12 4 4 6 4 5 2 4 5 3 2 6 6 24 41 47 44 36 26 18 12 14 17 20 23 27 34 39 43 47
84 72 72 72 70 63 59 61 51 28 5 5 6 3 1 4 4 8 14 10 29 41 17 8 8 5 3 4 7 9 4 6 3 5 3 7 25 35 33 27 20 13 8 12 19 26 30 34 37 39 43 47 48 49
94 70 85 78 77 63 64 59 29 14 8 5 3 8 7 0 3 9 16 20 43 25 2 4 6 4 8 3 5 5 5 3 13 16 21 25 29 25 17 8 6 14 21 26 31 35 38 42 46 50 49 43 39 38
84 86 90 89 84 74 67 24 15 10 7 9 4 6 13 3 7 14 13 33 29 11 8 2 11 6 7 7 4 6 10 20 20 15 13 14 13 10 8 10 16 22 27 33 38 42 45 47 45 42 41 39 32 29
91 99 99 97 84 57 14 23 8 8 6 6 9 10 8 6 7 15 18 47 15 10 6 5 2 4 4 4 5 19 27 18 15 11 11 11 8 8 11 17 23 28 32 35 38 38 38 39 39 38 38 37 32 29
94 104 96 87 65 17 11 9 16 7 9 12 11 14 9 7 12 16 42 28 18 7 3 4 4 2 4 16 21 22 18 14 8 7 6 6 9 17 21 25 29 32 34 34 34 33 30 29 31 30 30 31 33 32
99 93 93 77 36 11 9 12 10 9 15 9 18 14 8 15 14 18 26 21 9 7 5 4 8 18 23 22 18 13 7 1 2 4 7 12 18 23 25 28 30 31 30 29 27 27 27 27 27 27 28 31 35 39
88 111 90 56 17 7 9 11 13 19 10 16 18 10 10 8 11 17 24 13 8 8 9 14 18 19 16 13 9 3 3 3 4 8 12 16 19 23 25 25 25 25 26 26 25 24 25 28 31 34 38 39 42 44
105 80 54 12 9 7 10 26 6 8 6 15 13 7 4 6 13 24 13 8 9 13 16 23 23 18 15 12 8 4 1 6 11 16 20 23 24 25 24 23 22 20 21 22 25 28 31 34 38 42 46 51 56 60
80 25 12 11 8 9 20 6 8 11 11 7 6 7 5 7 20 7 4 8 11 19 23 21 23 21 17 15 12 7 7 11 13 14 14 16 19 19 18 17 17 18 20 25 30 34 39 43 46 49 52 57 61 65
20 17 15 8 10 14 7 7 5 4 5 5 6 3 7 11 6 6 5 9 20 22 22 20 20 23 19 15 9 8 9 11 13 14 14 13 13 11 10 12 19 24 29 35 38 42 46 51 54 58 59 61 64 66
8 9 11 14 15 12 14 11 13 10 8 7 4 10 10 7 7 8 5 12 20 26 21 19 18 15 12 10 7 8 12 12 12 9 9 8 10 13 17 22 26 31 38 45 50 53 54 55 57 58 59 59 60 65
9 7 9 14 20 24 11 9 13 8 9 11 9 11 8 8 11 5 6 8 16 17 18 16 14 13 10 8 8 8 8 8 7 6 5 8 12 17 22 29 37 41 45 46 49 52 55 56 57 58 60 60 60 61
9 19 16 30 15 9 9 6 10 13 9 18 30 11 14 5 4 6 9 8 11 13 15 13 12 10 8 6 2 1 4 5 6 8 12 17 22 24 27 33 37 39 40 41 43 45 49 52 54 56 57 59 60 56
10 25 39 12 12 9 5 3 5 6 12 23 7 6 8 8 10 12 13 14 14 14 13 11 9 8 7 5 3 0 2 4 7 10 13 15 18 24 29 32 34 36 37 37 37 38 40 43 46 49 50 52 52 52
12 25 15 10 7 5 3 7 11 18 17 22 21 20 17 18 17 18 16 15 14 13 11 9 7 6 3 1 1 1 4 10 13 14 15 17 20 22 24 25 27 29 32 34 34 33 32 34 36 38 42 45 48 50
22 11 15 14 10 6 19 34 35 30 19 17 18 18 22 18 19 17 15 15 14 12 9 7 7 7 5 4 2 1 2 6 9 13 15 17 19 22 25 27 29 31 33 35 38 40 41 42 43 43 43 43 44 45
10 9 14 9 10 23 19 9 9 9 9 8 10 12 14 11 9 15 18 16 13 10 9 8 9 8 8 6 6 7 8 11 13 15 16 18 20 23 25 26 29 31 32 34 35 36 38 40 42 43 45 45 44 44
14 22 19 18 12 11 13 11 8 10 12 8 7 8 7 9 9 12 19 18 13 11 10 12 12 13 11 10 11 12 13 14 15 16 17 18 20 22 24 27 29 32 34 36 37 39 40 41 42 43 44 45 46 47
Wind_Direction_850mb
198 200 204 208 209 213 210 210 215 220 232 232 220 219 229 241 256 274 287 283 224 202 207 208 209 256 309 6 306 327 301 178 311 298 327 1 355 69 132 6 106 152 168 170 123 111 217 152 245 189 34 346 347 111
196 199 200 197 198 203 205 202 205 215 219 223 221 222 236 238 261 274 278 286 211 190 159 145 151 110 66 326 306 306 315 307 358 295 287 280 238 272 342 117 272 138 349 105 353 79 34 139 10 341 360 34 103 148
196 197 198 194 197 200 200 206 210 207 213 214 218 224 240 253 266 268 269 232 184 170 121 151 235 240 307 313 302 298 315 338 304 291 309 314 4 262 10 76 139 49 337 80 161 20 92 54 43 60 46 84 126 134
196 196 196 195 198 202 207 215 216 209 219 221 223 237 252 263 272 252 233 214 200 137 159 182 181 255 293 285 293 304 299 300 294 275 255 290 318 7 355 11 351 14 282 129 98 67 132 351 106 101 99 106 112 112
194 195 196 198 201 202 209 218 226 220 224 224 233 249 264 269 228 211 223 206 209 222 102 147 177 271 258 152 313 304 306 313 289 268 300 53 314 317 286 262 56 6 32 345 94 104 47 90 148 135 126 109 101 99
195 195 198 201 202 204 210 217 227 226 225 221 236 257 252 205 185 178 239 239 226 201 148 159 173 193 196 321 311 324 307 333 330 346 19 55 50 340 337 53 39 97 70 45 85 60 109 136 149 144 140 136 121 107
195 195 199 202 203 205 206 211 225 228 221 215 232 234 205 185 186 209 222 186 184 175 158 130 185 226 243 288 298 347 33 18 45 12 9 349 6 2 324 60 24 196 139 66 86 90 83 138 151 161 157 158 185 273
193 197 198 197 199 199 202 210 218 214 210 206 210 202 209 199 202 225 232 213 175 184 183 127 115 132 333 19 188 8 353 11 23 32 9 14 319 0 308 296 246 83 126 141 161 57 114 153 164 179 188 190 212 282
193 195 195 195 198 198 200 201 198 196 197 179 185 194 147 183 212 221 172 177 188 230 164 161 229 120 358 24 5 360 7 60 5 21 31 338 302 242 1 68 49 109 156 306 216 213 179 160 154 159 182 229 268 289
191 191 192 193 194 194 196 187 176 183 165 169 174 179 228 212 160 133 126 159 196 218 154 96 119 103 16 0 64 323 24 43 187 38 320 269 288 280 282 234 184 105 146 108 125 203 209 209 217 231 262 282 289 298
187 189 190 189 191 192 186 177 174 159 167 167 190 187 172 149 148 160 125 126 321 182 116 128 138 119 44 335 41 32 43 358 332 41 341 314 267 260 306 294 248 240 211 183 98 129 128 141 170 193 223 267 274 281
184 185 186 186 188 188 182 176 169 176 172 162 157 130 145 182 169 167 63 281 231 202 150 153 142 119 118 96 2 11 39 296 315 333 271 267 240 310 316 296 254 204 189 180 137 120 118 124 127 143 252 306 321 310
180 184 185 183 183 181 175 172 176 173 156 143 168 154 155 186 181 198 194 208 236 172 175 159 133 130 103 92 79 237 242 49 303 278 304 271 311 354 349 108 138 127 123 134 133 109 99 96 87 40 324 310 306 306
177 183 184 181 179 172 171 174 173 167 169 182 176 182 197 183 242 193 308 58 147 150 149 135 108 88 92 73 1 175 36 304 276 294 258 352 345 42 88 110 112 111 114 113 107 94 66 18 340 321 313 311 310 309
175 179 177 177 173 171 175 175 170 174 192 212 188 219 205 248 233 183 133 122 139 150 142 119 96 120 82 101 34 124 121 258 246 293 318 310 89 110 109 109 112 112 107 94 61 14 346 329 321 318 314 312 311 310
169 168 176 170 170 170 173 167 174 183 268 233 227 158 210 141 206 196 166 148 154 155 145 128 125 139 115 117 169 213 194 216 167 220 238 143 135 132 123 118 111 95 44 359 340 330 322 318 317 317 316 313 311 310
164 169 172 168 167 166 162 165 158 193 219 226 237 211 198 94 136 172 159 159 162 154 209 158 151 144 110 163 233 205 212 139 142 115 97 110 134 143 146 161 251 296 305 308 311 315 315 313 313 312 310 310 311 308
166 168 164 167 163 160 164 162 174 184 202 220 193 200 193 159 145 153 164 163 160 191 170 239 133 168 200 180 220 193 185 150 137 113 109 127 149 178 219 270 290 297 302 306 307 308 308 309 310 311 312 312 313 304
168 163 168 171 160 144 135 177 175 163 183 193 191 169 164 169 161 159 160 163 165 164 151 163 208 222 240 223 79 121 136 133 135 140 149 163 194 237 269 290 299 303 305 306 308 311 312 312 313 313 311 310 312 312
163 167 168 166 155 137 119 123 169 160 170 184 167 162 143 145 149 158 161 164 161 172 238 211 242 309 117 124 119 120 130 137 137 159 174 205 287 306 309 311 312 313 312 311 309 308 307 305 305 307 309 310 312 312
160 163 167 160 157 110 110 145 128 141 143 159 156 142 116 124 119 147 171 171 191 225 211 188 143 132 135 138 136 128 129 183 277 267 268 289 304 309 315 317 317 317 316 318 319 321 324 326 325 322 320 319 319 320
153 167 156 154 157 105 98 124 139 134 136 143 147 143 137 135 139 158 167 192 223 196 179 159 154 158 150 147 148 209 262 293 324 317 308 304 305 310 314 319 323 327 330 332 335 335 332 330 329 328 325 322 320 320
154 152 153 118 128 123 126 140 115 124 129 170 148 134 128 135 166 154 193 222 198 196 179 172 175 180 186 200 225 236 274 323 316 316 318 319 321 324 326 327 328 328 329 329 331 332 331 328 326 325 325 325 325 324
149 133 128 139 123 108 140 155 142 119 119 172 181 143 162 150 160 204 235 186 192 177 177 180 188 195 203 213 217 233 290 310 319 313 310 314 322 321 318 318 320 323 327 328 326 326 324 324 324 323 323 323 323 323
126 167 168 114 133 119 121 144 155 149 118 158 127 148 175 162 192 207 208 172 183 177 178 182 188 201 205 209 227 273 302 317 319 316 311 308 304 302 311 321 323 323 319 319 319 322 324 326 328 330 331 330 329 328
139 142 154 150 145 144 170 150 179 154 131 145 143 141 156 175 193 233 123 177 184 189 188 192 193 188 193 209 246 277 293 300 304 299 311 327 333 331 325 322 321 324 325 326 327 327 328 329 329 330 330 330 331 330
132 139 128 129 134 138 125 101 133 137 148 165 168 170 173 190 229 107 179 183 186 181 188 190 194 201 212 231 252 273 292 312 320 312 314 312 310 312 314 322 327 327 328 329 329 329 329 329 330 331 332 333 336 334
124 149 141 146 133 158 131 130 149 183 168 160 143 176 186 205 127 161 171 155 159 172 180 183 186 186 180 181 189 325 325 326 314 310 313 316 323 327 327 326 322 319 322 325 327 329 330 330 332 333 332 331 331 332
114 142 136 97 109 93 81 104 121 122 135 167 120 113 116 101 124 132 138 148 144 142 145 145 142 152 148 138 118 141 292 321 331 327 321 323 325 322 325 327 331 335 336 335 335 334 332 332 331 329 329 329 329 329
129 148 111 76 73 88 38 105 126 137 135 137 120 114 105 113 123 129 130 135 136 136 137 137 130 129 121 111 63 342 339 342 339 335 339 341 343 339 340 342 344 343 342 342 342 340 338 337 339 341 342 343 344 346
128 109 82 68 77 57 123 118 115 113 108 90 98 114 118 125 136 136 137 136 134 137 136 135 143 145 137 137 152 172 339 356 0 8 11 5 2 0 358 357 357 356 356 356 356 355 355 356 355 356 356 357 357 356
85 77 122 111 119 141 120 106 96 81 84 82 78 95 118 118 127 157 164 157 151 149 155 160 160 155 147 123 93 73 56 42 38 36 29 22 16 13 9 6 5 4 2 2 0 358 357 357 357 356 356 357 356 356
93 91 96 104 121 165 155 125 89 90 70 78 82 118 116 130 143 154 157 160 156 153 153 154 151 144 125 98 79 66 56 50 46 42 35 27 18 15 14 12 10 7 4 1 359 358 357 355 353 352 350 349 348 347